星链-6288 (STARLINK-6288 )

导读 | 星芒AI

STARLINK-6288 是 SpaceX 星链计划中的一颗低轨通信卫星,属于第 23 批星链卫星组(Batch 23)。它于 2023 年发射,部署在约 550 公里的近地轨道上,旨在为全球用户提供高速互联网服务。该卫星采用先进的相控阵天线和激光通信技术,具备高带宽和低延迟特性,支持偏远地区的网络接入。作为星链星座的一部分,STARLINK-6288 有助于提升全球卫星互联网的覆盖范围与服务质量。

基本信息
目录编号:
56398
目录名称:
STARLINK-6288
国际标识:
2023-061AA
轨道中心:
EARTH
卫星名称:
星链-6288
卫星全名:
星链-6288 (STARLINK-6288 )
卫星状态:
在轨 (已飞行914 天)
发射日期:
2023-05-04 UTC
国别 :
美国 (US)
星等 :
--
轨道信息
数据来源 国际轨道数据
星历时间: 2025-11-02T04:50:14+0800
1天前
查看轨道信息
半长轴: 6937.202km
偏心率: 0.000049
轨道倾角: 43.001°
近地点辐角 268.888°
升交点赤经 159.303°
平近点角 91.191°
近地点: 558.727km
远地点: 559.407km
周期: 95.838分钟
每日圈数: 15.025408
详细信息
固有亮度:
5
最大亮度:
2.5
卫星平台:
Starlink v1.5
覆盖范围:
全球
运营商:
太空探索技术公司
运营商所在国:
美国
制造商(研发单位):
太空探索技术公司
制造商所在国:
美国
使用方式:
暂无
卫星简介
星链(Starlink)计划是由太空探索技术公司(SpaceX)提出的一个巨型低轨卫星互联网星座项目,计划在2019年至2024年间在太空搭建由约1.2万颗卫星组成的“星链”网络,其中1584颗将部署在地球上空550千米处的近地轨道,并从2020年开始工作。该卫星仍在工作。
2D轨道图
3D轨道图
轨道高度分析图
轨道倾角分析图
轨道综合分析图
查看轨道综合分析图